Wetbulb
30.80 26.65 22.34 23.51 25.78 25.77 24.32 21.09 18.32 21.22 26.27 24.07 21.93 20.78 21.71 22.13 22.45 22.32 23.45 24.81 25.14 27.09 29.85 29.82 30.88 30.67 31.33 32.03 32.91 33.81 34.68 35.88 37.58 38.67 38.58 39.05 40.73 41.99 42.96 44.35 45.30 46.46 48.42 48.79
26.41 23.72 27.26 29.11 28.58 26.44 24.38 21.74 19.93 22.74 27.45 24.28 18.62 18.16 21.34 25.12 23.89 24.45 25.00 24.85 24.79 25.65 28.19 30.19 28.95 28.67 29.27 29.82 31.76 32.76 33.55 34.63 36.32 38.21 38.68 38.04 39.75 40.88 42.75 43.39 43.99 45.53 46.65 48.52
24.14 26.71 31.72 29.05 25.82 25.36 22.37 21.77 21.02 20.81 24.38 23.99 21.34 18.09 22.75 26.87 26.31 27.49 26.98 26.89 26.86 26.65 25.39 26.89 28.33 26.04 27.53 28.57 29.71 32.15 32.71 33.88 35.84 37.37 38.18 39.22 40.05 40.56 40.96 41.36 42.10 43.73 45.24 46.14
26.55 29.70 29.09 26.38 26.09 25.19 21.66 25.33 25.11 23.91 19.75 14.10 21.17 7.94 18.00 24.46 24.22 25.48 26.18 24.94 25.45 25.08 25.35 26.10 25.80 25.83 26.81 28.42 29.68 31.47 32.64 32.85 36.31 36.84 36.24 35.66 36.76 36.67 39.47 40.21 41.93 42.11 43.86 44.44
24.77 26.01 26.00 24.93 26.15 27.73 24.39 27.21 23.77 24.33 18.99 15.74 16.52 11.42 13.61 21.32 20.61 22.44 24.33 25.97 24.84 24.39 23.54 24.11 24.85 24.24 25.68 27.29 28.73 29.92 31.85 33.37 34.41 35.88 35.52 35.45 35.97 38.35 39.66 40.82 40.25 40.82 42.26 43.34
26.70 29.30 27.97 26.52 29.00 28.49 28.87 24.08 22.65 19.94 16.22 5.75 14.85 14.06 9.94 14.88 20.17 22.47 25.21 25.77 26.51 25.25 24.90 25.47 27.18 27.49 27.61 27.55 28.35 29.53 30.99 32.43 33.84 34.99 35.08 34.74 34.32 36.34 37.58 38.91 39.45 39.88 41.26 41.39
25.84 25.68 28.01 30.34 24.74 27.42 24.82 17.78 13.06 13.44 7.29 6.40 16.08 11.28 13.28 20.68 23.87 24.65 24.70 23.92 25.25 26.07 26.11 26.64 24.97 26.68 27.81 27.74 28.21 30.11 31.39 31.72 32.98 33.98 34.03 34.67 34.58 35.90 36.89 38.30 39.30 39.31 39.83 39.74
20.70 21.35 25.67 29.69 26.00 23.41 21.50 18.21 8.69 6.65 1.21 4.52 16.41 4.35 13.31 23.16 27.01 27.58 27.60 26.12 26.16 25.93 25.70 26.58 28.60 27.44 27.13 28.48 28.46 28.63 30.52 31.23 32.80 32.95 33.00 33.83 34.55 35.70 37.03 38.34 39.31 39.94 40.25 40.50
21.05 22.03 28.23 30.26 30.36 27.54 21.21 16.33 21.60 16.67 16.88 10.28 6.51 10.94 18.51 24.20 26.06 27.14 27.31 26.21 24.70 25.06 26.80 28.51 29.45 27.71 27.65 27.87 28.66 28.37 29.35 31.01 32.71 32.29 32.36 32.79 33.53 35.27 35.97 37.36 39.22 40.40 40.76 41.69
25.24 20.88 28.15 28.98 29.71 28.46 24.55 26.16 15.21 13.94 1.32 -1.70 0.73 2.81 7.26 19.78 22.86 25.27 24.68 24.15 24.06 25.11 26.93 27.29 27.17 27.34 28.64 28.67 28.60 28.69 29.93 31.35 31.81 31.65 31.61 33.42 32.93 34.80 36.60 37.39 38.14 39.64 40.24 41.74
25.78 23.03 24.00 27.50 23.44 21.06 21.23 19.32 19.21 17.66 14.54 2.73 -4.61 6.00 13.57 19.16 24.34 23.62 23.82 25.55 24.29 23.92 24.43 25.33 26.39 27.74 28.07 28.37 28.15 28.73 30.12 31.31 31.20 31.36 31.95 32.29 32.97 34.52 36.44 36.67 38.08 39.39 40.86 41.71
26.26 23.34 19.38 23.52 27.49 29.00 25.01 23.23 22.07 12.86 14.48 14.28 7.13 7.45 23.42 23.33 24.25 24.51 24.55 26.33 25.58 25.96 26.26 27.02 26.59 27.22 28.02 28.41 28.74 28.81 30.17 30.11 31.45 32.20 32.86 32.98 33.72 34.55 35.13 36.65 37.29 39.37 40.95 42.07
26.78 21.60 16.57 21.68 22.48 25.34 22.44 24.21 24.07 21.80 17.12 5.97 7.05 9.99 24.76 24.46 25.44 25.94 24.17 25.05 26.39 26.60 27.30 27.50 27.35 27.93 28.44 28.77 29.50 29.89 29.76 30.66 32.06 32.82 32.26 32.57 33.06 33.86 34.14 36.08 38.14 39.50 41.07 41.79
30.85 22.25 21.54 16.88 21.57 23.06 20.57 23.55 24.03 20.08 12.01 8.01 13.43 19.07 23.81 23.11 17.99 23.02 23.63 24.89 25.43 25.83 27.17 27.11 27.33 28.18 28.76 29.10 29.90 29.23 30.47 31.25 31.68 32.08 31.57 31.20 32.08 33.53 34.36 36.65 39.53 39.61 40.86 41.26
27.32 22.35 23.25 24.72 25.92 26.01 24.31 24.38 24.12 17.46 14.26 14.93 18.36 14.48 23.08 17.03 15.43 16.18 22.36 25.60 25.88 26.29 27.48 27.81 28.05 28.22 27.42 27.41 28.51 29.95 30.46 30.71 31.08 31.06 31.00 31.35 32.68 34.30 35.81 37.00 39.32 39.40 40.29 40.70
27.13 22.91 24.34 23.31 26.49 22.28 23.87 25.05 24.76 24.99 16.56 15.95 18.66 18.29 25.98 24.47 22.51 21.90 24.69 25.46 25.07 26.84 27.51 29.22 29.95 29.52 27.86 28.55 28.71 30.17 29.83 29.81 30.68 29.85 30.70 32.43 33.17 34.42 36.63 38.78 37.63 38.39 39.19 38.96
25.25 23.40 23.07 20.58 24.84 22.84 18.88 24.22 23.88 23.77 23.02 17.78 15.59 22.90 22.39 22.23 25.16 19.10 19.17 25.80 25.07 27.21 27.75 28.83 29.41 28.08 27.37 28.32 29.52 28.31 28.76 29.67 29.28 29.43 30.91 31.64 32.96 33.70 37.27 37.50 37.17 37.51 37.13 38.33
25.89 24.78 24.20 20.98 22.26 11.72 25.74 29.44 27.86 23.74 26.93 23.84 23.60 20.76 18.33 20.45 23.96 23.85 24.31 25.94 27.39 28.11 28.21 29.59 27.93 26.74 27.58 28.49 28.61 28.66 29.46 29.10 28.94 29.03 29.64 31.02 32.46 33.06 35.89 36.16 34.62 35.20 36.00 36.60
29.25 25.72 21.15 13.72 16.67 23.76 27.21 27.03 24.39 22.74 23.12 26.92 25.03 25.97 26.14 25.94 23.83 23.72 28.75 28.89 28.07 27.37 28.21 26.99 27.00 26.77 27.22 28.06 28.67 28.01 27.30 27.61 28.11 28.21 28.63 30.09 32.05 32.65 35.70 34.58 31.98 32.48 31.54 31.47
29.62 27.58 21.88 20.37 16.08 11.21 25.52 27.26 29.14 27.33 16.44 27.84 26.96 25.91 25.16 23.74 14.74 19.27 26.31 29.21 27.66 28.25 28.01 27.50 27.05 27.19 27.13 27.47 27.36 26.08 25.97 26.71 26.54 27.67 28.83 29.97 31.44 32.93 33.96 31.74 29.72 29.43 29.80 30.37
25.11 24.24 19.12 18.39 13.86 20.10 28.81 28.73 29.62 20.34 24.45 28.82 27.75 26.68 24.90 21.51 23.70 26.38 28.37 27.35 27.93 27.65 28.11 27.91 27.16 26.62 26.51 26.98 26.56 25.03 25.54 26.02 27.42 28.78 29.55 30.34 30.84 32.71 33.48 30.18 29.08 27.74 27.60 28.01
24.48 20.18 18.04 20.51 14.51 13.42 30.55 27.22 24.27 29.51 27.53 28.71 28.18 27.55 26.82 27.60 28.27 28.00 27.43 26.63 27.13 26.81 27.33 27.11 26.31 26.03 26.62 26.96 25.93 24.39 24.24 26.89 27.95 28.20 28.96 29.63 29.95 33.65 31.82 28.62 27.93 27.32 25.91 25.35
24.13 26.38 23.26 23.68 23.52 29.98 30.00 31.19 31.97 30.93 30.68 29.20 28.65 29.24 29.24 28.30 27.71 27.93 26.47 26.18 26.14 25.89 25.32 25.94 25.64 25.70 25.45 25.37 25.49 24.20 25.85 27.32 27.55 27.20 27.33 27.96 30.44 31.37 29.50 28.01 26.75 26.21 25.57 24.29
30.72 31.71 27.48 28.50 31.13 31.90 33.25 32.26 31.31 31.49 31.87 31.79 31.89 30.98 29.73 28.26 28.01 26.94 26.26 25.48 24.94 24.41 24.11 24.71 24.74 23.84 23.31 24.62 25.83 25.50 26.50 27.41 27.19 26.62 26.94 28.29 29.98 30.13 28.97 28.50 28.28 26.02 24.32 23.54
30.36 30.92 29.00 28.03 32.39 33.32 33.93 33.65 33.45 32.49 33.10 32.17 32.09 31.34 30.75 29.08 27.94 27.49 26.40 25.62 25.22 24.29 24.33 24.28 23.35 22.93 23.23 24.56 25.08 25.73 26.39 26.63 25.91 26.25 26.81 27.48 27.84 29.92 29.74 28.76 27.34 27.42 26.66 25.33
30.60 29.27 27.97 29.05 33.07 32.66 32.42 33.21 34.81 34.03 33.61 32.68 31.75 30.12 30.72 30.62 29.18 27.71 26.79 26.92 25.92 24.60 24.36 23.34 23.11 23.14 23.76 24.48 24.67 25.38 26.05 26.31 25.46 26.16 25.69 26.25 27.02 26.06 26.99 28.89 29.26 30.89 29.74 29.31
MSLP
1026.32 1026.98 1028.21 1029.21 1029.49 1030.19 1030.64 1030.94 1031.07 1030.75 1030.48 1031.32 1032.07 1032.62 1032.75 1032.62 1032.48 1032.26 1031.96 1031.80 1031.49 1031.23 1030.94 1030.83 1030.89 1030.55 1030.06 1029.59 1029.09 1028.42 1027.80 1027.34 1026.73 1025.99 1025.37 1024.65 1024.09 1023.58 1022.91 1022.75 1022.23 1021.04 1020.53 1020.01
1027.17 1028.10 1029.30 1029.30 1029.62 1030.08 1030.67 1031.06 1031.37 1031.40 1031.33 1031.74 1032.91 1033.04 1032.86 1032.64 1032.34 1032.07 1031.86 1031.66 1031.42 1031.25 1031.10 1030.99 1030.92 1030.71 1030.46 1030.15 1029.47 1028.78 1028.21 1027.69 1027.10 1026.52 1026.06 1025.51 1024.60 1023.90 1023.53 1023.02 1022.48 1021.32 1020.93 1020.51
1028.16 1029.54 1029.34 1029.35 1029.92 1030.25 1030.83 1031.34 1031.61 1032.20 1032.41 1032.68 1033.35 1033.62 1033.21 1032.56 1032.18 1031.94 1031.72 1031.42 1031.24 1031.14 1031.09 1030.93 1030.77 1030.71 1030.60 1030.23 1029.69 1028.97 1028.28 1027.86 1027.34 1026.78 1026.25 1025.73 1024.97 1024.27 1023.64 1022.87 1022.18 1021.57 1021.46 1020.81
1029.03 1029.42 1029.47 1029.71 1030.01 1030.43 1030.68 1031.05 1031.44 1032.07 1033.05 1033.59 1033.97 1034.79 1033.49 1032.68 1032.10 1031.79 1031.54 1031.42 1031.19 1030.93 1030.80 1030.65 1030.49 1030.45 1030.31 1030.12 1029.62 1028.95 1028.33 1027.83 1027.14 1026.88 1026.62 1026.29 1025.66 1024.93 1024.32 1023.63 1022.84 1022.09 1021.53 1021.07
1029.48 1029.54 1029.70 1030.02 1030.41 1030.42 1030.96 1030.98 1031.58 1032.44 1033.59 1034.61 1034.98 1035.71 1033.32 1032.99 1032.43 1031.69 1031.29 1031.07 1030.98 1030.77 1030.69 1030.50 1030.33 1030.25 1030.07 1029.88 1029.60 1029.15 1028.49 1027.79 1027.42 1027.14 1026.86 1026.51 1026.06 1025.29 1024.64 1023.87 1023.15 1022.44 1022.25 1021.02
1029.38 1029.48 1029.63 1029.86 1030.34 1030.66 1030.77 1031.48 1032.24 1033.45 1034.66 1035.86 1035.53 1036.13 1034.47 1033.36 1031.96 1031.27 1030.83 1030.73 1030.76 1030.72 1030.56 1030.34 1030.17 1030.00 1029.76 1029.57 1029.33 1028.95 1028.55 1028.00 1027.64 1027.33 1027.01 1026.65 1026.21 1025.50 1024.89 1024.13 1023.35 1022.41 1022.02 1021.34
1029.59 1029.56 1029.59 1029.76 1030.39 1030.91 1031.48 1032.54 1033.73 1034.99 1036.27 1036.76 1036.36 1036.51 1033.91 1032.48 1031.50 1030.88 1030.66 1030.66 1030.67 1030.51 1030.40 1030.26 1030.03 1029.94 1029.75 1029.59 1029.37 1028.99 1028.65 1028.33 1027.94 1027.57 1027.11 1026.70 1026.17 1025.62 1025.20 1024.45 1023.61 1022.79 1022.13 1021.59
1030.09 1029.58 1029.73 1029.78 1030.37 1031.19 1032.42 1033.49 1035.09 1036.87 1037.91 1037.84 1036.88 1036.25 1033.17 1031.78 1030.97 1030.58 1030.50 1030.36 1030.44 1030.56 1030.43 1030.24 1030.08 1029.81 1029.80 1029.57 1029.35 1029.14 1028.75 1028.51 1028.08 1027.69 1027.25 1026.72 1026.25 1025.82 1025.37 1024.79 1024.20 1023.59 1022.96 1022.56
1030.15 1029.89 1029.64 1029.77 1030.15 1031.25 1032.39 1033.81 1034.89 1036.57 1038.09 1039.01 1037.74 1036.03 1033.35 1031.54 1030.91 1030.50 1030.44 1030.45 1030.52 1030.50 1030.27 1030.09 1029.99 1029.91 1029.81 1029.58 1029.24 1029.10 1028.88 1028.43 1028.02 1027.73 1027.36 1026.87 1026.37 1025.87 1025.46 1024.81 1024.30 1023.82 1023.28 1022.60
1030.34 1030.45 1029.94 1030.09 1030.42 1031.31 1032.03 1033.37 1035.10 1036.96 1038.79 1039.95 1038.46 1037.03 1034.50 1032.13 1031.08 1030.51 1030.33 1030.35 1030.31 1030.24 1030.29 1030.31 1030.19 1030.01 1029.78 1029.41 1029.18 1028.94 1028.63 1028.32 1028.12 1027.81 1027.39 1026.97 1026.45 1025.95 1025.38 1024.85 1024.37 1023.78 1023.12 1022.59
1030.28 1030.91 1030.76 1030.61 1030.96 1031.40 1032.43 1033.42 1035.04 1036.74 1038.51 1039.87 1039.19 1036.12 1032.88 1031.60 1030.78 1030.43 1030.16 1030.03 1030.21 1030.39 1030.36 1030.25 1030.05 1029.92 1029.56 1029.28 1029.08 1028.95 1028.67 1028.45 1028.22 1027.91 1027.49 1027.04 1026.51 1026.03 1025.56 1025.06 1024.57 1024.05 1023.33 1022.75
1030.79 1031.38 1031.42 1030.90 1030.80 1031.06 1031.88 1032.84 1034.29 1036.36 1037.73 1038.64 1038.69 1034.40 1031.35 1030.90 1030.47 1030.24 1030.22 1030.16 1030.06 1030.00 1029.96 1029.89 1029.80 1029.69 1029.38 1029.12 1028.98 1028.90 1028.74 1028.58 1028.30 1028.02 1027.63 1027.18 1026.62 1026.09 1025.67 1025.29 1024.70 1024.21 1023.55 1022.99
1031.11 1031.83 1031.98 1031.17 1031.52 1031.36 1031.80 1032.35 1033.48 1035.10 1036.62 1037.36 1037.69 1032.91 1030.50 1030.44 1030.36 1030.20 1030.39 1030.12 1029.91 1029.72 1029.66 1029.61 1029.50 1029.40 1029.30 1028.95 1028.84 1028.80 1028.79 1028.64 1028.33 1028.09 1027.81 1027.33 1026.78 1026.17 1025.69 1025.33 1024.78 1024.21 1023.61 1023.10
1031.20 1032.08 1032.22 1031.93 1031.14 1031.14 1031.69 1031.93 1032.84 1034.29 1035.99 1035.98 1034.51 1031.70 1030.29 1030.43 1030.75 1030.32 1030.25 1029.85 1029.71 1029.58 1029.52 1029.54 1029.39 1029.15 1029.03 1028.79 1028.83 1028.87 1028.82 1028.61 1028.44 1028.19 1027.90 1027.54 1026.99 1026.40 1025.79 1025.36 1024.92 1024.46 1023.83 1023.38
1031.76 1032.29 1032.23 1031.42 1030.89 1030.92 1030.71 1030.86 1031.95 1033.22 1033.74 1034.62 1031.91 1031.92 1030.08 1030.31 1030.48 1030.21 1029.88 1029.79 1029.68 1029.39 1029.25 1029.18 1029.03 1028.91 1028.88 1028.84 1028.95 1028.97 1028.85 1028.73 1028.51 1028.24 1027.90 1027.53 1027.05 1026.54 1026.04 1025.58 1025.20 1024.78 1024.33 1023.92
1032.11 1032.25 1032.23 1031.29 1030.32 1030.49 1030.11 1029.67 1030.17 1031.01 1032.30 1032.58 1031.72 1030.96 1029.18 1029.24 1029.75 1029.96 1029.56 1029.58 1029.43 1029.11 1028.88 1028.65 1028.56 1028.58 1028.68 1028.82 1028.97 1029.01 1028.97 1028.73 1028.47 1028.29 1027.92 1027.39 1027.00 1026.70 1026.39 1025.87 1025.62 1025.25 1024.97 1024.75
1032.23 1032.54 1032.58 1031.66 1030.74 1030.11 1029.23 1027.59 1028.35 1029.10 1029.77 1030.34 1030.52 1029.01 1028.92 1029.18 1029.34 1029.35 1029.13 1029.15 1028.90 1028.65 1028.54 1028.39 1028.31 1028.44 1028.73 1028.81 1028.91 1029.02 1028.88 1028.66 1028.55 1028.31 1027.88 1027.43 1027.07 1026.76 1026.58 1026.25 1026.04 1025.81 1025.52 1025.21
1031.83 1032.54 1032.68 1032.10 1030.90 1029.68 1026.91 1026.46 1026.79 1027.71 1027.80 1028.22 1028.28 1028.27 1028.45 1028.54 1028.54 1028.58 1028.43 1028.41 1028.26 1028.15 1028.03 1027.94 1028.09 1028.48 1028.59 1028.83 1029.08 1028.96 1028.76 1028.67 1028.60 1028.42 1028.10 1027.62 1027.23 1026.94 1026.72 1026.50 1026.42 1026.20 1025.95 1025.78
1030.94 1031.93 1032.67 1032.67 1032.01 1028.85 1026.02 1026.02 1026.33 1026.93 1026.60 1026.16 1026.96 1026.97 1027.36 1027.73 1028.01 1027.65 1027.06 1027.15 1027.30 1027.43 1027.38 1027.50 1027.73 1028.05 1028.41 1028.71 1028.70 1028.80 1028.78 1028.70 1028.60 1028.47 1028.26 1027.80 1027.45 1027.19 1026.94 1026.82 1026.73 1026.59 1026.47 1026.34
1030.98 1031.55 1032.47 1032.82 1032.38 1029.81 1026.04 1025.55 1025.65 1026.03 1026.06 1024.89 1025.64 1026.09 1026.69 1027.47 1027.78 1027.22 1026.40 1026.44 1026.64 1026.83 1027.08 1027.36 1027.53 1027.90 1028.35 1028.58 1028.69 1028.83 1028.67 1028.59 1028.56 1028.44 1028.16 1027.75 1027.59 1027.45 1027.33 1027.22 1027.21 1027.16 1027.03 1026.95
1030.82 1031.57 1032.01 1032.29 1031.84 1028.42 1025.48 1025.31 1025.52 1025.59 1024.29 1023.81 1024.41 1025.00 1025.93 1026.89 1026.24 1026.09 1026.04 1026.30 1026.45 1026.66 1026.85 1027.16 1027.62 1027.88 1028.07 1028.27 1028.43 1028.61 1028.66 1028.57 1028.41 1028.22 1027.87 1027.63 1027.62 1027.61 1027.73 1027.68 1027.58 1027.55 1027.51 1027.41
1028.96 1030.01 1030.79 1031.23 1030.52 1026.90 1024.36 1025.07 1024.67 1022.79 1022.64 1022.98 1023.54 1023.99 1024.60 1024.82 1025.28 1025.62 1025.93 1026.25 1026.38 1026.61 1026.97 1027.26 1027.76 1028.03 1028.08 1028.11 1028.30 1028.34 1028.30 1028.28 1028.31 1028.07 1027.85 1027.72 1027.69 1027.67 1027.89 1027.95 1028.05 1027.99 1027.89 1027.89
1027.82 1026.79 1027.32 1027.66 1025.08 1022.88 1022.55 1021.62 1021.26 1021.54 1021.90 1022.37 1022.84 1023.11 1023.70 1024.48 1024.95 1025.15 1025.47 1025.85 1026.19 1026.53 1026.88 1027.18 1027.48 1027.82 1028.05 1028.02 1028.06 1028.25 1028.21 1028.15 1027.99 1027.95 1028.01 1027.90 1027.95 1028.00 1028.11 1028.25 1028.33 1028.38 1028.35 1028.31
1025.96 1025.53 1025.74 1025.29 1021.48 1021.37 1021.16 1020.83 1020.83 1020.99 1021.16 1021.22 1021.53 1021.97 1022.69 1023.36 1023.77 1024.37 1025.02 1025.50 1025.89 1026.21 1026.49 1026.82 1027.32 1027.77 1028.05 1028.14 1028.32 1028.38 1028.32 1028.11 1028.11 1028.02 1027.84 1027.84 1028.09 1028.24 1028.29 1028.34 1028.41 1028.53 1028.62 1028.59
1025.26 1024.90 1023.97 1023.17 1020.69 1020.48 1019.96 1019.87 1019.60 1019.89 1020.31 1020.60 1020.86 1021.24 1021.76 1022.48 1023.14 1023.74 1024.41 1024.93 1025.37 1025.88 1026.31 1026.56 1026.94 1027.28 1027.40 1027.79 1028.02 1027.94 1027.85 1027.77 1027.89 1027.86 1027.80 1027.74 1027.83 1028.10 1028.27 1028.34 1028.35 1028.44 1028.61 1028.56
1023.57 1022.15 1022.29 1020.62 1019.12 1019.19 1018.92 1018.48 1018.49 1019.01 1019.20 1019.37 1020.07 1020.73 1021.10 1021.63 1022.23 1023.02 1023.78 1024.20 1024.73 1025.30 1025.74 1026.09 1026.35 1026.60 1026.87 1027.11 1027.28 1027.43 1027.77 1027.90 1027.95 1027.80 1027.71 1027.66 1027.71 1027.84 1027.96 1028.10 1028.12 1028.20 1028.31 1028.39
Wind_Speed
8 10 14 7 8 8 6 3 2 4 4 6 4 5 4 3 3 3 2 1 0 2 5 3 4 6 7 7 8 8 9 10 7 8 9 8 8 8 8 8 14 13 12 13
8 15 4 4 7 8 7 6 6 3 6 7 1 2 4 5 5 5 5 4 4 3 4 4 4 5 5 5 7 8 8 8 7 7 7 4 6 5 6 6 10 12 13 12
9 1 5 4 6 6 3 6 5 1 2 5 3 6 5 6 4 5 6 5 5 6 3 3 3 2 3 4 5 6 7 7 6 7 6 7 5 6 6 9 9 11 12 13
7 3 5 7 6 3 4 3 3 1 1 3 3 7 6 6 8 6 6 5 7 4 2 1 0 3 3 4 5 6 7 6 6 7 7 7 7 7 7 6 8 8 12 12
1 1 4 6 3 3 4 3 1 1 3 2 2 1 9 3 6 8 7 7 5 4 2 1 1 2 2 3 5 5 7 7 6 7 6 5 7 6 7 7 8 9 9 12
3 0 2 2 2 4 5 5 5 4 3 3 2 4 9 4 6 4 5 6 6 5 4 3 3 2 3 4 5 5 6 6 7 6 7 7 7 9 8 10 8 8 8 9
3 2 2 2 1 5 9 6 3 5 5 7 1 3 12 6 8 7 7 6 7 7 6 4 3 3 5 6 6 6 6 7 7 7 7 7 7 7 8 9 8 9 9 10
3 4 3 2 2 2 3 3 6 4 3 8 5 7 10 6 7 6 6 6 6 5 5 5 5 3 4 6 6 6 7 6 6 6 7 7 7 4 5 6 7 6 6 7
3 3 0 1 2 5 1 4 4 2 1 3 4 9 11 5 7 6 6 5 8 8 6 6 6 3 5 6 6 5 6 5 5 6 6 7 6 7 6 7 7 6 7 8
2 3 2 1 3 3 1 5 2 4 3 6 7 7 9 5 8 7 7 8 7 6 6 6 6 5 4 5 5 6 4 3 4 6 6 6 6 7 6 6 7 9 9 9
3 3 1 3 4 6 1 1 3 4 5 5 4 10 9 8 7 8 9 8 6 6 6 6 6 6 6 5 4 4 3 4 5 6 6 6 7 7 6 5 6 8 9 9
1 4 4 7 2 4 3 4 5 5 3 4 4 12 5 9 8 7 8 7 6 5 6 5 5 6 6 5 5 4 2 4 5 5 5 6 6 7 6 5 7 8 9 8
4 0 4 2 3 4 4 5 4 3 4 6 3 12 3 6 6 7 7 8 7 6 7 6 5 6 6 5 3 1 3 4 5 5 6 6 7 7 7 5 8 8 9 8
4 3 6 7 7 3 4 6 6 6 3 4 11 16 17 7 7 9 8 8 7 7 6 5 5 6 5 1 2 1 2 4 5 5 6 6 7 7 6 6 8 8 8 9
3 3 4 7 12 7 12 14 8 10 8 7 10 8 20 8 8 7 7 5 6 8 6 6 5 4 2 3 2 2 2 4 5 5 6 6 6 6 6 7 7 8 8 8
1 3 2 7 5 4 8 11 10 12 4 11 15 21 10 6 4 4 7 6 7 7 7 7 6 4 3 5 4 2 2 4 4 5 6 6 6 5 8 7 7 7 8 9
5 2 2 6 5 7 7 8 6 4 5 7 6 12 2 5 7 6 6 6 6 7 7 7 6 5 5 6 5 3 2 2 5 5 6 6 6 4 6 5 7 8 8 5
6 3 3 5 7 4 5 2 4 8 8 10 9 8 7 7 5 5 6 6 7 6 7 6 5 4 6 5 4 3 3 3 4 5 6 6 5 5 5 4 4 4 5 7
4 4 1 1 2 11 6 3 6 6 9 7 10 9 5 1 1 7 7 7 7 6 6 6 5 5 6 6 5 4 1 2 2 5 5 6 5 5 4 5 5 4 5 5
5 3 4 1 1 6 5 2 5 4 6 7 8 8 5 5 1 6 4 5 6 6 4 5 5 5 6 6 4 3 1 2 1 4 5 5 4 4 4 5 5 4 4 5
4 3 5 3 4 12 8 5 4 3 9 7 8 8 8 6 8 4 4 5 5 5 6 5 6 7 7 6 5 3 3 3 2 3 4 4 3 4 4 4 4 4 5 4
8 7 5 3 2 12 9 5 9 9 2 5 8 8 8 8 5 6 7 7 7 6 6 6 6 6 6 6 4 5 5 2 2 3 5 3 3 4 4 5 4 5 5 5
4 9 8 13 13 6 11 8 12 5 5 6 8 8 9 8 8 8 8 8 7 8 6 5 6 6 5 4 6 6 5 3 1 3 4 3 3 4 4 4 4 3 4 4
5 5 5 2 6 15 15 14 6 8 9 6 8 10 10 9 9 9 7 7 7 7 7 6 7 6 5 5 5 4 4 3 2 2 2 3 5 4 3 2 2 3 3 3
7 6 6 8 14 10 11 9 10 9 9 7 8 9 14 10 10 10 8 8 8 8 6 6 7 6 7 6 6 6 6 5 4 4 2 3 4 4 4 3 2 3 2 2
9 10 8 12 8 5 6 5 6 9 10 12 10 7 9 13 12 10 9 9 9 9 7 7 7 7 7 7 7 7 5 5 4 4 3 3 3 3 3 3 3 2 6 6
Wind_Direction
24 72 56 84 104 135 136 129 336 299 278 98 126 133 173 225 133 161 207 277 312 336 311 33 27 1 16 5 4 353 0 348 354 355 351 350 351 352 355 354 337 350 354 351
31 52 31 57 78 80 63 42 349 333 4 84 104 200 265 224 218 209 211 243 262 287 314 349 12 18 6 345 353 352 352 347 347 358 347 324 328 334 346 350 338 353 357 348
83 24 19 52 47 58 35 45 330 159 14 38 114 308 253 259 256 234 245 251 252 244 279 312 360 338 331 351 333 347 344 343 343 353 347 342 338 339 344 356 348 356 352 352
80 341 48 31 41 66 30 333 358 70 139 236 118 281 268 231 228 222 236 238 253 246 275 226 158 347 324 316 311 345 340 341 352 352 356 350 346 349 338 330 344 348 352 352
182 75 55 39 345 333 268 331 22 87 100 47 235 51 265 311 259 244 235 231 233 236 228 169 146 294 284 293 307 312 332 346 347 356 353 354 346 335 334 335 341 357 343 357
95 318 112 202 56 29 310 28 44 60 83 7 227 118 281 213 218 228 235 224 207 215 229 258 264 313 328 339 335 324 334 331 351 355 344 346 340 336 344 344 343 347 353 353
354 271 294 151 38 12 22 36 351 349 4 235 259 37 242 254 239 230 247 258 215 224 232 264 280 315 328 334 326 320 335 328 340 347 343 336 333 334 335 339 342 344 349 347
39 343 197 159 168 136 61 99 132 274 275 278 312 235 261 230 267 254 273 219 233 246 250 260 267 284 305 317 322 329 330 332 335 335 332 327 333 326 323 332 335 333 343 333
28 281 114 174 134 110 117 48 180 184 309 326 265 292 306 256 269 265 271 244 249 244 251 263 300 306 312 306 314 310 331 319 318 327 327 324 327 330 323 325 336 335 337 335
192 313 223 138 70 39 28 166 37 15 0 302 291 284 244 276 261 263 271 266 273 280 283 310 310 291 297 305 296 320 312 285 314 320 326 323 317 320 325 332 338 338 332 336
119 121 283 90 187 191 16 1 68 138 141 195 296 268 219 228 239 232 254 277 274 290 274 278 291 288 289 306 289 318 321 331 329 330 324 332 324 323 333 337 332 342 333 339
359 132 276 230 312 177 159 200 150 120 247 225 157 271 244 228 236 234 266 281 280 268 277 276 281 285 308 306 339 316 332 339 332 327 337 336 330 334 339 347 334 347 337 338
180 28 327 329 6 343 222 205 174 109 79 223 144 264 242 247 243 254 279 276 269 278 291 299 306 304 299 312 304 88 9 337 336 345 338 334 334 333 335 350 345 352 341 341
93 163 188 204 221 163 227 201 192 154 155 221 228 276 292 260 249 269 271 262 270 272 274 280 288 283 305 345 132 118 10 354 342 337 336 330 330 327 331 348 357 349 354 356
121 255 206 252 261 255 262 268 221 194 203 202 274 227 285 264 249 250 244 266 273 267 270 257 259 289 268 139 152 87 357 343 335 338 335 325 323 332 346 355 6 354 15 20
135 263 311 287 284 217 267 253 236 232 196 254 269 281 265 252 219 256 249 255 255 260 253 252 257 248 174 176 166 157 319 333 338 330 328 329 339 353 1 8 18 2 27 35
160 186 30 268 324 306 303 243 187 208 192 172 211 253 227 252 236 241 257 238 249 267 267 260 253 196 187 176 171 193 234 314 347 339 338 343 342 3 23 13 22 17 7 48
152 170 165 280 333 348 245 233 178 203 245 212 274 261 212 233 244 258 229 233 259 268 263 251 198 172 175 171 192 212 243 326 343 338 345 343 348 10 19 32 19 14 11 37
167 132 243 177 246 290 298 183 164 163 280 215 223 259 238 220 35 282 227 206 229 227 221 206 189 179 172 180 194 203 320 306 343 331 341 334 349 23 47 12 20 16 23 29
98 95 135 122 315 251 243 173 139 117 289 219 195 236 209 117 9 257 226 199 195 191 199 195 185 151 159 194 196 181 122 142 322 336 320 322 2 43 53 52 44 32 36 36
166 186 194 144 249 281 240 169 160 101 242 193 193 205 176 188 202 212 182 179 178 197 192 162 161 170 186 189 190 157 166 183 272 305 334 346 20 108 71 59 47 49 48 49
172 156 196 156 194 280 155 96 172 215 198 198 198 203 195 216 199 197 192 185 177 172 157 160 159 186 199 204 173 167 170 206 278 8 357 34 14 109 109 88 54 47 53 51
232 190 181 184 215 225 199 207 215 175 187 204 196 208 200 194 202 186 192 188 186 179 173 172 169 187 217 222 179 168 200 197 119 48 9 48 100 120 121 104 92 71 55 49
248 169 230 156 244 230 223 239 240 198 220 209 212 192 178 190 186 192 187 185 182 182 179 170 172 192 211 201 185 185 185 186 167 135 62 82 137 142 132 108 107 92 71 49
207 154 207 262 280 269 255 230 231 220 228 218 205 194 195 183 195 188 189 190 189 183 183 180 184 192 192 182 187 192 194 186 185 185 172 124 141 169 189 204 176 129 127 131
181 202 181 227 219 196 240 219 195 209 217 216 193 198 200 191 191 181 196 194 185 188 184 188 194 187 194 182 190 198 207 200 195 203 199 186 162 175 197 212 218 178 152 126